Regional Weather Roundup
Issued by NWS

Home | Current Version | Previous Version | Graphics & Text | Print | Product List | Glossary On
Versions: 1 2 3 4 5 6 7 8 9 10 11 12 13 14 15 16 17 18 19 20 21 22 23 24 25 26 27 28 29 30 31 32 33 34 35 36 37 38 39 40 41 42 43 44 45 46 47 48 49 50
485
ASUS43 KFSD 232210
RWRSD

WEATHER ROUNDUP FOR SOUTH DAKOTA
NATIONAL WEATHER SERVICE SIOUX FALLS SD
400 PM CST THU NOV 23 2017

NOTE: "FAIR" INDICATES FEW OR NO CLOUDS BELOW 12,000 FEET WITH NO
SIGNIFICANT WEATHER AND/OR OBSTRUCTIONS TO VISIBILITY.


SDZ001>005-009-010-012>017-232300-
NORTHWEST AND NORTH CENTRAL SOUTH DAKOTA

CITY           SKY/WX    TMP DP  RH WIND       PRES   REMARKS
FAITH            N/A     72  37  28 SW12      29.68F
MOBRIDGE       CLOUDY    63  41  44 SE7       29.61F
$$

SDZ012>016-024>037-041>051-057-063-072>074-232300-
SOUTHWEST AND SOUTH CENTRAL SOUTH DAKOTA

CITY           SKY/WX    TMP DP  RH WIND       PRES   REMARKS
RAPID CTY ARPT SUNNY     72  35  25 S8        29.74F
PIERRE         PTCLDY    67  42  40 S6        29.69F
CUSTER         CLOUDY    55  33  43 W7        29.88F
ELLSWORTH AFB  CLOUDY    71  35  27 S9        29.73F
PHILIP         CLEAR     74  40  29 SW13      29.71F
PINE RIDGE     CLOUDY    70  38  31 W10       29.82F
SPEARFISH      FAIR      66  34  30 SW22      29.75F
WINNER         FAIR      72  41  32 W6        29.76F
$$

SDZ004>011-016>023-039-040-232300-
NORTHEAST SOUTH DAKOTA

CITY           SKY/WX    TMP DP  RH WIND       PRES   REMARKS
ABERDEEN       CLOUDY    55  39  54 S12       29.66F
WATERTOWN      CLEAR     50  37  61 S10       29.70F
BROOKINGS      CLEAR     53  37  54 S10       29.75S
SISSETON         N/A     56  38  50 SW20      29.63F
$$

SDZ017-020-022-023-036>040-048>070-232300-
SOUTHEAST SOUTH DAKOTA

CITY           SKY/WX    TMP DP  RH WIND       PRES   REMARKS
SIOUX FALLS    CLOUDY    57  39  51 S12       29.77F
HURON          CLOUDY    58  41  53 S5        29.72S
CHAMBERLAIN    CLOUDY    66  46  47 SW3       29.73F
MITCHELL       CLOUDY    64  42  44 S7        29.74F
YANKTON        CLEAR     68  43  40 S6        29.78F
$$

ABBREVIATIONS USED IN REMARKS
   TC - TEMPERATURE IN CELSIUS
  WCI - WIND CHILL INDEX
   HX - HEAT INDEX
  VSB - VISIBILITY





USA.gov is the U.S. government's official web portal to all federal, state and local government web resources and services.